Facebook Twitter

Wetterstation Belgrad

aktuelles Wetter
  Temperatur Wetter Niederschlag Luftdruck Wind
Fr, 12:00 Uhr 21° - 1030 hPa 14 km/h W
Fr, 11:00 Uhr 19° 0.0 mm 1030 hPa 14 km/h W
Fr, 10:00 Uhr 17° - 1030 hPa 11 km/h W
Fr, 09:00 Uhr 15° - 1031 hPa 11 km/h W
Fr, 08:00 Uhr 14° 0 mm 1030 hPa 14 km/h W
Fr, 07:00 Uhr 12° - 1030 hPa 11 km/h SW
Fr, 06:00 Uhr 12° - 1030 hPa 11 km/h W
Fr, 05:00 Uhr 13° - 1030 hPa 11 km/h W
Fr, 04:00 Uhr 12° - 1029 hPa 11 km/h SW
Fr, 02:00 Uhr 14° 0 mm 1029 hPa 7 km/h SW
Fr, 01:00 Uhr 14° - 1029 hPa 7 km/h S
Fr, 00:00 Uhr 15° - 1029 hPa 7 km/h SW
Do, 23:00 Uhr 16° - 1029 hPa 7 km/h SW
Do, 22:00 Uhr 16° - 1029 hPa 7 km/h SW
Do, 21:00 Uhr 18° - 1029 hPa 14 km/h W
Do, 20:00 Uhr 19° 0 mm 1028 hPa 11 km/h W
Do, 19:00 Uhr 21° - 1027 hPa 7 km/h NW
Do, 18:00 Uhr 22° - 1027 hPa 11 km/h W
Do, 17:00 Uhr 22° - 1027 hPa 11 km/h W
Do, 16:00 Uhr 21° - 1028 hPa 7 km/h NW

Alle Zeitangaben MESZ